Location: Unspecified
(31.7796°N, 35.2084°E)
Time: 01:21:06
(UTC+02:00)

ISS - Visible Passes

Search period start: 14 November 2018 00:00
Search period end: 24 November 2018 00:00
Orbit: 402 x 409 km, 51.6° (Epoch: 14 November)

Date Brightness Start Highest point End Pass type
(mag) Time Alt. Az. Time Alt. Az. Time Alt. Az.
14 Nov -3.1 05:12:24 12° NNW 05:15:17 49° NE 05:18:29 10° ESE visible
15 Nov -2.0 04:22:50 24° NNE 04:23:10 24° NE 04:25:55 10° E visible
16 Nov -3.5 05:06:03 25° WNW 05:07:37 49° SW 05:10:47 10° SSE visible
17 Nov -2.4 04:16:39 38° ESE 04:16:39 38° ESE 04:18:50 10° SE visible
18 Nov -1.9 05:00:01 16° SW 05:00:01 16° SW 05:01:52 10° SSW visible
19 Nov -0.8 04:10:41 11° SSE 04:10:41 11° SSE 04:10:49 10° SSE visible
20 Nov -1.9 18:12:51 10° SSW 18:14:20 21° S 18:14:20 21° S visible
21 Nov -1.7 17:22:03 10° SSE 17:23:45 14° SE 17:24:53 12° ESE visible
21 Nov -0.6 18:56:56 10° WSW 18:57:35 15° WSW 18:57:35 15° WSW visible
22 Nov -4.0 18:04:33 10° SW 18:07:48 84° NW 18:08:02 75° NNE visible
23 Nov -3.2 17:12:39 10° SSW 17:15:43 40° SE 17:18:23 13° ENE visible
23 Nov -0.7 18:50:13 10° WNW 18:51:04 13° WNW 18:51:04 13° WNW visible
